Regional Weather Roundup
Issued by NWS

Home | Current Version | Previous Version | Text Only | Print | Product List | Glossary On
Versions: 1 2 3 4 5 6 7 8 9 10 11 12 13 14 15 16 17 18 19 20 21 22 23 24 25 26 27 28 29 30 31 32 33 34 35 36 37 38 39 40 41 42 43 44 45 46 47 48 49 50
000
ASUS44 KOUN 220110
RWROK

WEATHER ROUNDUP FOR OKLAHOMA
NATIONAL WEATHER SERVICE NORMAN OK
700 PM CST WED FEB 21 2018

NOTE: "FAIR" INDICATES FEW OR NO CLOUDS BELOW 12,000 FEET WITH NO
      SIGNIFICANT WEATHER AND/OR OBSTRUCTIONS TO VISIBILITY.

OKZ001>007-009>012-014-015-017-220200-
NORTHWEST OKLAHOMA AND THE PANHANDLE

CITY           SKY/WX    TMP DP  RH WIND       PRES   REMARKS
GAGE           CLOUDY    23  19  85 NE9       30.34F WCI  13
GUYMON         CLOUDY    27   6  41 E10       30.28S WCI  17
ENID/WOODRING  CLOUDY    28  28 100 NE8       30.37F FOG     WCI  20
$$

OKZ016-021>023-033>039-044-045-220200-
SOUTHWEST OKLAHOMA

CITY           SKY/WX    TMP DP  RH WIND       PRES   REMARKS
LAWTON/REGL    CLOUDY    26  24  92 N15       30.35F WCI  14
LAWTON/FT SILL FRZ RAIN  25  25 100 N20       30.33S WCI  11
FREDERICK      CLOUDY    25  23  92 N17       30.34R FOG     WCI  12
CLINTON        FRZ RAIN  23  22  96 NE18      30.35F FOG     WCI   9
HOBART         FRZ RAIN  25  23  92 NE16      30.37R FOG     WCI  12
ALTUS AFB      FRZ RAIN  25  22  88 N12       30.37S WCI  14
$$

OKZ018>020-024>031-220200-
CENTRAL OKLAHOMA

CITY           SKY/WX    TMP DP  RH WIND       PRES   REMARKS
OKLAHOMA CITY  CLOUDY    24  22  91 N14       30.34S WCI  12
OKC/WILEY POST CLOUDY    25  23  92 N15G23    30.36R WCI  13
OKC/TINKER AFB CLOUDY    25  23  93 N12       30.33S WCI  14
STILLWATER     CLOUDY    25  23  92 NE13      30.40R WCI  14
GUTHRIE        CLOUDY    25  23  92 NE9       30.39S WCI  15
$$

OKZ008-013-054>072-220200-
NORTHEAST OKLAHOMA

CITY           SKY/WX    TMP DP  RH WIND       PRES   REMARKS
TULSA          CLOUDY    30  29  96 N12       30.36S WCI  20
TULSA/JONES    CLOUDY    30  27  88 N8        30.37R WCI  22
PONCA CITY     CLOUDY    27  23  85 NE10      30.41S WCI  17
BARTLESVILLE   CLOUDY    27  24  89 N13       30.42F WCI  16
MUSKOGEE       LGT RAIN  33  32  96 E25G32    30.23F WCI  20
$$

OKZ032-040>043-046>053-073>077-220200-
SOUTH CENTRAL/SOUTHEAST OKLAHOMA

CITY           SKY/WX    TMP DP  RH WIND       PRES   REMARKS
ARDMORE/DWNTWN CLOUDY    32  32 100 CALM      30.29S
MCALESTER      FRZ RAIN  32  32 100 E9G17     30.26F WCI  24
$$





USA.gov is the U.S. government's official web portal to all federal, state and local government web resources and services.